| time (UTC) | temp F | wind direction | speed knots | gust knots | rain 1hr in | rain 24hr in | rain mn in | humidity % | barometer mb |
| 20260504081541 | 50 | 360 | 0.0 | 1.7 | 0.00 | 0.00 | 0.00 | 48 | 1008.2 |
| 20260504044534 | 49 | 0 | 0.0 | 0.0 | 0.00 | 0.00 | 0.00 | 46 | 1009.2 |
| 20260504043034 | 50 | 0 | 0.0 | 0.0 | 0.00 | 0.00 | 0.00 | 45 | 1009.3 |
| 20260504041542 | 51 | 0 | 0.0 | 0.0 | 0.00 | 0.00 | 0.00 | 43 | 1009.4 |
| 20260504040045 | 51 | 0 | 0.0 | 0.0 | 0.00 | 0.00 | 0.00 | 43 | 1009.5 |
| 20260504034538 | 52 | 0 | 0.0 | 0.0 | 0.00 | 0.00 | 0.00 | 42 | 1009.7 |
| 20260504033048 | 53 | 0 | 0.0 | 0.0 | 0.00 | 0.00 | 0.00 | 40 | 1009.8 |
| 20260504031537 | 54 | 0 | 0.0 | 0.0 | 0.00 | 0.00 | 0.00 | 39 | 1009.7 |
| 20260504030035 | 56 | 0 | 0.0 | 0.0 | 0.00 | 0.00 | 0.00 | 37 | 1009.8 |
| 20260504024552 | 57 | 0 | 0.0 | 0.0 | 0.00 | 0.00 | 0.00 | 34 | 1009.6 |
| 20260504023038 | 59 | 0 | 0.0 | 1.7 | 0.00 | 0.00 | 0.00 | 32 | 1009.6 |
| 20260504021539 | 60 | 0 | 0.0 | 1.7 | 0.00 | 0.00 | 0.00 | 29 | 1009.4 |
| 20260504020034 | 62 | 0 | 0.0 | 3.5 | 0.00 | 0.00 | 0.00 | 27 | 1009.4 |
| 20260504014534 | 63 | 0 | 0.0 | 2.6 | 0.00 | 0.00 | 0.00 | 26 | 1009.5 |
| 20260504013048 | 65 | 0 | 0.0 | 4.3 | 0.00 | 0.00 | 0.00 | 25 | 1009.5 |
| 20260504011542 | 66 | 360 | 0.9 | 3.5 | 0.00 | 0.00 | 0.00 | 23 | 1009.7 |
| 20260504010035 | 68 | 0 | 0.9 | 3.5 | 0.00 | 0.00 | 0.00 | 22 | 1009.8 |
| 20260504004543 | 69 | 0 | 1.7 | 4.3 | 0.00 | 0.00 | 0.00 | 21 | 1009.9 |
| 20260504003034 | 70 | 280 | 1.7 | 8.7 | 0.00 | 0.00 | 0.00 | 19 | 1010.1 |
| 20260504001546 | 71 | 325 | 2.6 | 7.0 | 0.00 | 0.00 | 0.00 | 19 | 1010.3 |
| 20260504000043 | 72 | 258 | 0.9 | 8.7 | 0.00 | 0.00 | 0.00 | 20 | 1010.3 |
| 20260503234539 | 71 | 334 | 1.7 | 7.8 | 0.00 | 0.00 | 0.00 | 21 | 1010.4 |
| 20260503233035 | 71 | 348 | 0.9 | 7.0 | 0.00 | 0.00 | 0.00 | 21 | 1010.4 |
| 20260503231535 | 72 | 325 | 1.7 | 7.0 | 0.00 | 0.00 | 0.00 | 22 | 1010.5 |
| 20260503230044 | 71 | 0 | 0.9 | 7.0 | 0.00 | 0.00 | 0.00 | 23 | 1010.6 |
| 20260503224542 | 72 | 327 | 1.7 | 7.0 | 0.00 | 0.00 | 0.00 | 24 | 1010.6 |
| 20260503223039 | 72 | 327 | 2.6 | 11.3 | 0.00 | 0.00 | 0.00 | 24 | 1010.9 |
| 20260503221536 | 71 | 5 | 1.7 | 9.6 | 0.00 | 0.00 | 0.00 | 25 | 1010.9 |
| 20260503220038 | 71 | 352 | 2.6 | 9.6 | 0.00 | 0.00 | 0.00 | 22 | 1011.3 |
| 20260503214534 | 71 | 286 | 2.6 | 9.6 | 0.00 | 0.00 | 0.00 | 21 | 1011.4 |
| 20260503213044 | 71 | 360 | 1.7 | 7.0 | 0.00 | 0.00 | 0.00 | 26 | 1011.6 |
| 20260503211541 | 72 | 360 | 2.6 | 7.0 | 0.00 | 0.00 | 0.00 | 25 | 1011.7 |
| 20260503210036 | 71 | 360 | 2.6 | 13.0 | 0.00 | 0.00 | 0.00 | 26 | 1012.1 |
| 20260503204534 | 71 | 352 | 1.7 | 8.7 | 0.00 | 0.00 | 0.00 | 27 | 1012.1 |
| 20260503203042 | 69 | 360 | 0.9 | 5.2 | 0.00 | 0.00 | 0.00 | 28 | 1012.2 |
| 20260503201542 | 70 | 0 | 1.7 | 7.0 | 0.00 | 0.00 | 0.00 | 27 | 1012.5 |
| 20260503200041 | 69 | 360 | 1.7 | 8.7 | 0.00 | 0.00 | 0.00 | 29 | 1012.7 |
| 20260503194541 | 69 | 360 | 2.6 | 8.7 | 0.00 | 0.00 | 0.00 | 29 | 1012.8 |
| 20260503193041 | 67 | 360 | 1.7 | 4.3 | 0.00 | 0.00 | 0.00 | 32 | 1013.2 |
| 20260503191536 | 66 | 360 | 0.9 | 7.0 | 0.00 | 0.00 | 0.00 | 36 | 1013.4 |
| 20260503190050 | 65 | 0 | 0.9 | 7.8 | 0.00 | 0.00 | 0.00 | 39 | 1013.7 |
| 20260503184554 | 61 | 360 | 3.5 | 7.8 | 0.00 | 0.00 | 0.00 | 45 | 1013.9 |
| 20260503183037 | 57 | 360 | 2.6 | 10.4 | 0.00 | 0.00 | 0.00 | 54 | 1014.1 |
| 20260503181537 | 60 | 360 | 2.6 | 11.3 | 0.00 | 0.00 | 0.00 | 55 | 1014.4 |
| 20260503180044 | 64 | 360 | 1.7 | 5.2 | 0.00 | 0.00 | 0.00 | 35 | 1014.6 |
| 20260503174600 | 65 | 360 | 1.7 | 7.8 | 0.00 | 0.00 | 0.00 | 34 | 1014.7 |
| 20260503173041 | 67 | 360 | 2.6 | 9.6 | 0.00 | 0.00 | 0.00 | 33 | 1014.9 |
| 20260503171534 | 65 | 360 | 4.3 | 8.7 | 0.00 | 0.00 | 0.00 | 34 | 1015.0 |